LKMT Weather Reports


Display with metric or nautical units.
time (UTC)temp
F
wind
direction
speed
MPH
gust
MPH
rain 1hr
in
rain 24hr
in
rain mn
in
humidity
%
barometer
mb
20260506102359 72 230 18.0 0.0 0.00 0.00 0.00 46
20260506100236 72 230 17.0 0.0 0.00 0.00 0.00 49 1008.0
20260506093231 70 250 17.0 0.0 0.00 0.00 0.00 49 1008.0
20260506092141 70 230 20.0 0.0 0.00 0.00 0.00 49
20260506090234 70 230 18.0 0.0 0.00 0.00 0.00 52 1008.0
20260506083230 68 200 18.0 0.0 0.00 0.00 0.00 56 1007.0
20260506082157 66 220 20.0 0.0 0.00 0.00 0.00 55
20260506080241 66 220 20.0 0.0 0.00 0.00 0.00 55 1007.0
20260506073230 66 210 18.0 0.0 0.00 0.00 0.00 55 1007.0
20260506072158 64 210 16.0 26.0 0.00 0.00 0.00 59
20260506070240 64 210 15.0 0.0 0.00 0.00 0.00 59 1007.0
20260506062230 63 220 14.0 0.0 0.00 0.00 0.00 59
20260506060234 63 220 13.0 0.0 0.00 0.00 0.00 59 1007.0
20260506050239 59 230 10.0 0.0 0.00 0.00 0.00 67 1007.0
20260506043224 57 240 10.0 0.0 0.00 0.00 0.00 71 1007.0
20260506042411 59 210 12.0 0.0 0.00 0.00 0.00 62
20260506040235 59 220 12.0 0.0 0.00 0.00 0.00 62 1006.0
20260506033216 59 190 13.0 0.0 0.00 0.00 0.00 62 1006.0
20260506032157 59 190 16.0 0.0 0.00 0.00 0.00 62
20260506030234 59 190 14.0 0.0 0.00 0.00 0.00 62 1006.0
20260506023223 59 200 12.0 0.0 0.00 0.00 0.00 62 1006.0
20260506022157 59 210 14.0 0.0 0.00 0.00 0.00 62
20260506020235 59 210 13.0 0.0 0.00 0.00 0.00 62 1006.0
20260506013224 61 220 7.0 0.0 0.00 0.00 0.00 59 1006.0
20260506012258 59 230 9.0 0.0 0.00 0.00 0.00 62
20260506010234 57 230 9.0 0.0 0.00 0.00 0.00 67 1006.0
20260506003230 61 210 14.0 0.0 0.00 0.00 0.00 55 1006.0
20260506002155 63 210 12.0 0.0 0.00 0.00 0.00 51
20260506000235 61 210 9.0 0.0 0.00 0.00 0.00 59 1006.0
20260505233223 63 190 9.0 0.0 0.00 0.00 0.00 51 1006.0
20260505232155 63 200 9.0 0.0 0.00 0.00 0.00 51
20260505230241 63 200 10.0 0.0 0.00 0.00 0.00 51 1006.0
20260505223223 64 200 10.0 0.0 0.00 0.00 0.00 45 1006.0
20260505222155 64 200 12.0 0.0 0.00 0.00 0.00 45
20260505220235 64 200 12.0 0.0 0.00 0.00 0.00 45 1006.0
20260505213223 64 190 9.0 0.0 0.00 0.00 0.00 42 1007.0
20260505212245 66 190 9.0 0.0 0.00 0.00 0.00 37
20260505210246 66 190 9.0 0.0 0.00 0.00 0.00 39 1007.0
20260505203231 66 200 9.0 0.0 0.00 0.00 0.00 39 1007.0
20260505202216 68 200 12.0 0.0 0.00 0.00 0.00 34
20260505200254 68 200 9.0 0.0 0.00 0.00 0.00 37 1007.0
20260505193231 68 180 6.0 0.0 0.00 0.00 0.00 40 1006.0
20260505192229 70 190 7.0 0.0 0.00 0.00 0.00 37
20260505190246 68 180 6.0 0.0 0.00 0.00 0.00 42 1006.0
20260505183231 72 180 10.0 0.0 0.00 0.00 0.00 37 1006.0
20260505182212 73 190 16.0 0.0 0.00 0.00 0.00 33
20260505180233 73 180 14.0 0.0 0.00 0.00 0.00 33 1006.0
20260505173238 75 180 16.0 0.0 0.00 0.00 0.00 31 1006.0
20260505172228 75 190 12.0 0.0 0.00 0.00 0.00 31
20260505170233 75 190 12.0 0.0 0.00 0.00 0.00 33 1006.0
20260505163245 75 190 16.0 0.0 0.00 0.00 0.00 33 1006.0
20260505162343 77 200 16.0 0.0 0.00 0.00 0.00 25
20260505160234 77 200 14.0 0.0 0.00 0.00 0.00 25 1006.0
20260505153238 79 190 18.0 0.0 0.00 0.00 0.00 15 1006.0
20260505152211 79 200 18.0 29.0 0.00 0.00 0.00 15
20260505150240 79 190 17.0 29.0 0.00 0.00 0.00 16 1006.0
20260505140604 81 210 24.0 36.0 0.00 0.00 0.00 15 1007.0
20260505140240 79 210 21.0 0.0 0.00 0.00 0.00 18 1007.0
20260505130234 79 200 22.0 0.0 0.00 0.00 0.00 19 1007.0
20260505123231 77 210 21.0 0.0 0.00 0.00 0.00 19 1007.0
20260505122157 77 210 24.0 36.0 0.00 0.00 0.00 19
20260505120226 77 210 24.0 36.0 0.00 0.00 0.00 19 1008.0
20260505113230 77 200 12.0 0.0 0.00 0.00 0.00 20 1008.0
20260505112158 75 180 14.0 0.0 0.00 0.00 0.00 17
20260505110244 75 180 13.0 0.0 0.00 0.00 0.00 19 1008.0